Time,TemperatureF,DewpointF,PressureIn,WindDirection,WindDirectionDegrees,WindSpeedMPH,WindSpeedGustMPH,Humidity,HourlyPrecipIn,Conditions,Clouds,dailyrainin,SoftwareType,DateUTC
2013-06-05 00:00:00,45.0,41.0,-100.00,SE,132,3.0,7.0,85,-99.99,,,-99.99,,2013-06-05 07:00:00,
2013-06-05 00:52:00,45.0,41.0,-100.00,SE,132,3.0,7.0,85,-99.99,,,-99.99,,2013-06-05 07:52:00,
2013-06-05 01:00:00,47.0,42.0,-100.00,SSE,159,5.0,7.0,83,-99.99,,,-99.99,,2013-06-05 08:00:00,
2013-06-05 01:52:00,47.0,42.0,-100.00,SSE,159,5.0,7.0,83,-99.99,,,-99.99,,2013-06-05 08:52:00,
2013-06-05 02:00:00,47.0,40.0,-100.00,NNW,346,3.0,9.0,76,-99.99,,,-99.99,,2013-06-05 09:00:00,
2013-06-05 02:53:00,47.0,40.0,-100.00,NNW,346,3.0,9.0,76,-99.99,,,-99.99,,2013-06-05 09:53:00,
2013-06-05 03:00:00,48.0,40.0,-100.00,West,267,3.0,6.0,74,-99.99,,,-99.99,,2013-06-05 10:00:00,
2013-06-05 03:53:00,48.0,40.0,-100.00,West,267,3.0,6.0,74,-99.99,,,-99.99,,2013-06-05 10:53:00,
2013-06-05 04:00:00,47.0,38.0,-100.00,ESE,104,2.0,3.0,72,-99.99,,,-99.99,,2013-06-05 11:00:00,
2013-06-05 04:52:00,47.0,38.0,-100.00,ESE,104,2.0,3.0,72,-99.99,,,-99.99,,2013-06-05 11:52:00,
2013-06-05 05:00:00,46.0,39.0,-100.00,WNW,293,3.0,7.0,77,-99.99,,,-99.99,,2013-06-05 12:00:00,
2013-06-05 05:52:00,46.0,39.0,-100.00,WNW,293,3.0,7.0,77,-99.99,,,-99.99,,2013-06-05 12:52:00,
2013-06-05 06:00:00,48.0,39.0,-100.00,West,274,5.0,10.0,71,-99.99,,,-99.99,,2013-06-05 13:00:00,
2013-06-05 06:52:00,48.0,39.0,-100.00,West,274,5.0,10.0,71,-99.99,,,-99.99,,2013-06-05 13:52:00,
2013-06-05 07:00:00,49.0,32.0,-100.00,SW,219,3.0,8.0,52,-99.99,,,-99.99,,2013-06-05 14:00:00,
2013-06-05 07:52:00,49.0,32.0,-100.00,SW,219,3.0,8.0,52,-99.99,,,-99.99,,2013-06-05 14:52:00,
2013-06-05 08:00:00,52.0,37.0,-100.00,SW,219,3.0,7.0,56,-99.99,,,-99.99,,2013-06-05 15:00:00,
2013-06-05 08:53:00,52.0,37.0,-100.00,SW,219,3.0,7.0,56,-99.99,,,-99.99,,2013-06-05 15:53:00,
2013-06-05 09:00:00,52.0,34.0,-100.00,WSW,251,3.0,6.0,50,-99.99,,,-99.99,,2013-06-05 16:00:00,
2013-06-05 09:54:00,52.0,34.0,-100.00,WSW,251,3.0,6.0,50,-99.99,,,-99.99,,2013-06-05 16:54:00,
2013-06-05 10:00:00,53.0,41.0,-100.00,ENE,71,3.0,9.0,64,-99.99,,,-99.99,,2013-06-05 17:00:00,
2013-06-05 10:52:00,53.0,41.0,-100.00,ENE,71,3.0,9.0,64,-99.99,,,-99.99,,2013-06-05 17:52:00,
2013-06-05 11:00:00,56.0,41.0,-100.00,WSW,244,2.0,7.0,57,-99.99,,,-99.99,,2013-06-05 18:00:00,
2013-06-05 11:52:00,56.0,41.0,-100.00,WSW,244,2.0,7.0,57,-99.99,,,-99.99,,2013-06-05 18:52:00,
2013-06-05 12:00:00,55.0,40.0,-100.00,South,174,5.0,10.0,56,-99.99,,,-99.99,,2013-06-05 19:00:00,
2013-06-05 12:53:00,55.0,40.0,-100.00,South,174,5.0,10.0,56,-99.99,,,-99.99,,2013-06-05 19:53:00,
2013-06-05 13:00:00,54.0,39.0,-100.00,WNW,285,9.0,14.0,57,-99.99,,,-99.99,,2013-06-05 20:00:00,
2013-06-05 13:52:00,54.0,39.0,-100.00,WNW,285,9.0,14.0,57,-99.99,,,-99.99,,2013-06-05 20:52:00,
2013-06-05 14:00:00,56.0,41.0,-100.00,WSW,244,8.0,15.0,56,-99.99,,,-99.99,,2013-06-05 21:00:00,
2013-06-05 14:53:00,56.0,41.0,-100.00,WSW,244,8.0,15.0,56,-99.99,,,-99.99,,2013-06-05 21:53:00,
2013-06-05 15:00:00,53.0,42.0,-100.00,NW,324,10.0,18.0,65,-99.99,,,-99.99,,2013-06-05 22:00:00,
2013-06-05 15:52:00,53.0,42.0,-100.00,NW,324,10.0,18.0,65,-99.99,,,-99.99,,2013-06-05 22:52:00,
2013-06-05 16:00:00,56.0,44.0,-100.00,North,352,9.0,16.0,63,-99.99,,,-99.99,,2013-06-05 23:00:00,
2013-06-05 16:53:00,56.0,44.0,-100.00,North,352,9.0,16.0,63,-99.99,,,-99.99,,2013-06-05 23:53:00,
2013-06-05 17:00:00,54.0,43.0,-100.00,West,275,14.0,20.0,66,-99.99,,,-99.99,,2013-06-06 00:00:00,
2013-06-05 17:52:00,54.0,43.0,-100.00,West,275,14.0,20.0,66,-99.99,,,-99.99,,2013-06-06 00:52:00,
2013-06-05 18:00:00,53.0,43.0,-100.00,West,263,12.0,18.0,70,-99.99,,,-99.99,,2013-06-06 01:00:00,
2013-06-05 18:53:00,53.0,43.0,-100.00,West,263,12.0,18.0,70,-99.99,,,-99.99,,2013-06-06 01:53:00,
2013-06-05 19:00:00,51.0,44.0,-100.00,West,279,14.0,18.0,77,-99.99,,,-99.99,,2013-06-06 02:00:00,
2013-06-05 20:00:00,47.0,43.0,-100.00,WNW,293,13.0,18.0,86,-99.99,,,-99.99,,2013-06-06 03:00:00,
2013-06-05 20:52:00,47.0,43.0,-100.00,WNW,293,13.0,18.0,86,-99.99,,,-99.99,,2013-06-06 03:52:00,
2013-06-05 21:00:00,47.0,44.0,-100.00,West,261,12.0,16.0,89,-99.99,,,-99.99,,2013-06-06 04:00:00,
2013-06-05 21:53:00,47.0,44.0,-100.00,West,261,12.0,16.0,89,-99.99,,,-99.99,,2013-06-06 04:53:00,
2013-06-05 22:00:00,46.0,42.0,-100.00,West,263,12.0,16.0,87,-99.99,,,-99.99,,2013-06-06 05:00:00,
2013-06-05 22:52:00,46.0,42.0,-100.00,West,263,12.0,16.0,87,-99.99,,,-99.99,,2013-06-06 05:52:00,
2013-06-05 23:00:00,46.0,41.0,-100.00,WNW,286,17.0,18.0,81,-99.99,,,-99.99,,2013-06-06 06:00:00,
2013-06-05 23:52:00,46.0,41.0,-100.00,WNW,286,17.0,18.0,81,-99.99,,,-99.99,,2013-06-06 06:52:00,